This demonstration page uses our WeatherBlox Daily Observations layout. Learn more.

40.92945, -100.16068

Hourly Observations for August 25, 2018

Temp ( °F °C ) Dew Point ( °F °C ) Humidity (%) Winds ( mph kmh ) Pressure ( in mb ) Visibility ( mi km ) Precip ( " mm )
12:15 am 00:15 Clear 64 17.5 61 15.9 90 90 S 3 6 29.85 1011 7 11.26538 0 0
12:35 am 00:35 Clear 62 16.7 59 15.1 90 90 Calm 29.85 1011 7 11.26538 0 0
12:55 am 00:55 Clear 62 16.8 59 14.9 89 89 SSW 5 7 29.85 1011 7 11.26538 0 0
1:15 am 01:15 Clear 62 16.4 58 14.2 87 87 Calm 29.85 1011 10 16.0934 0 0
1:35 am 01:35 Clear 61 15.9 57 13.9 88 88 Calm 29.85 1011 10 16.0934 0 0
1:55 am 01:55 Clear 60 15.7 58 14.2 91 91 Calm 29.85 1011 7 11.26538 0 0
2:15 am 02:15 Clear 60 15.3 57 14 92 92 Calm 29.88 1012 7 11.26538 0 0
2:35 am 02:35 Clear 60 15.3 57 14 92 92 Calm 29.88 1012 7 11.26538 0 0
2:55 am 02:55 Clear 60 15.3 57 13.8 91 91 Calm 29.88 1012 7 11.26538 0 0
3:15 am 03:15 Clear 58 14.6 56 13.4 93 93 Calm 29.88 1012 7 11.26538 0 0
3:35 am 03:35 Clear 59 15 57 13.9 93 93 Calm 29.88 1012 7 11.26538 0 0
3:55 am 03:55 Clear 58 14.3 55 13 92 92 Calm 29.88 1012 7 11.26538 0 0
4:15 am 04:15 Clear 58 14.4 56 13.3 93 93 Calm 29.88 1012 7 11.26538 0 0
4:35 am 04:35 Clear with Mist and Fog 58 14.4 56 13.3 93 93 Calm 29.88 1012 5 8.0467 0 0
4:55 am 04:55 Clear with Mist and Fog 58 14.2 56 13.1 93 93 Calm 29.88 1012 5 8.0467 0 0
5:15 am 05:15 Clear 57 14.1 55 12.8 92 92 Calm 29.88 1012 7 11.26538 0 0
5:35 am 05:35 Clear with Mist and Fog 57 14 55 12.9 93 93 Calm 29.88 1012 5 8.0467 0 0
5:55 am 05:55 Clear with Mist and Fog 57 13.8 55 12.8 94 94 Calm 29.88 1012 5 8.0467 0 0
6:15 am 06:15 Clear 56 13.6 55 12.6 94 94 Calm 29.88 1012 7 11.26538 0 0
6:35 am 06:35 Clear with Mist and Fog 56 13.5 55 12.5 94 94 Calm 29.88 1012 5 8.0467 0 0
6:55 am 06:55 Clear 57 13.7 55 12.8 94 94 Calm 29.88 1012 7 11.26538 0 0
7:15 am 07:15 Sunny with Mist and Fog 56 13.4 54 12.3 93 93 Calm 29.91 1013 5 8.0467 0 0
7:35 am 07:35 Sunny with Mist and Fog 57 13.7 55 12.7 94 94 Calm 29.91 1013 5 8.0467 0 0
7:55 am 07:55 Sunny with Mist and Fog 58 14.4 56 13.4 94 94 Calm 29.91 1013 4 6.43736 0 0
8:15 am 08:15 Sunny with Mist and Fog 60 15.7 58 14.6 93 93 Calm 29.91 1013 5 8.0467 0 0
8:35 am 08:35 Sunny with Mist and Fog 64 17.5 60 15.7 89 89 Calm 29.88 1012 4 6.43736 0 0
8:55 am 08:55 Sunny with Mist and Fog 66 18.9 62 16.6 87 87 Calm 29.88 1012 5 8.0467 0 0
9:15 am 09:15 Sunny 68 20.1 62 16.5 80 80 Calm 29.85 1011 7 11.26538 0 0
9:35 am 09:35 Sunny 71 21.7 62 16.5 72 72 Calm 29.85 1011 7 11.26538 0 0
9:55 am 09:55 Sunny 74 23.2 63 17 68 68 Calm 29.83 1010 7 11.26538 0 0
10:15 am 10:15 Sunny 75 24 64 17.9 69 69 Calm 29.85 1011 7 11.26538 0 0
10:35 am 10:35 Sunny 78 25.3 67 19.3 69 69 Calm 29.85 1011 10 16.0934 0 0
10:55 am 10:55 Sunny 79 25.9 65 18.4 63 63 W 5 7 29.85 1011 10 16.0934 0 0
11:15 am 11:15 Sunny 80 26.7 65 18.2 60 60 WSW 5 7 29.83 1010 10 16.0934 0 0
11:35 am 11:35 Sunny 82 28 65 18.5 56 56 SW 5 7 29.83 1010 10 16.0934 0 0
11:55 am 11:55 Sunny 84 28.8 66 19 55 55 WSW 3 6 29.83 1010 10 16.0934 0 0
12:15 pm 12:15 Sunny 86 29.8 65 18.2 50 50 SSW 7 11 29.8 1009 10 16.0934 0 0
12:35 pm 12:35 Sunny 87 30.5 62 16.7 43 43 S 10 17 29.77 1008 10 16.0934 0 0
12:55 pm 12:55 Sunny 88 30.9 61 16 41 41 S 9 15 29.77 1008 10 16.0934 0 0
1:15 pm 13:15 Sunny 88 30.9 61 16.2 41 41 S 12 19 29.77 1008 10 16.0934 0 0
1:35 pm 13:35 Sunny 88 31.3 62 16.5 41 41 S 13 20 29.77 1008 10 16.0934 0 0
1:55 pm 13:55 Sunny 88 31.3 60 15.8 39 39 S 12 19 29.77 1008 10 16.0934 0 0
2:15 pm 14:15 Sunny 89 31.6 63 17.4 43 43 S 10 17 29.77 1008 10 16.0934 0 0
2:35 pm 14:35 Sunny 89 31.9 62 16.8 40 40 S 10 17 29.77 1008 10 16.0934 0 0
2:55 pm 14:55 Sunny 89 31.9 64 17.8 43 43 S 13 20 29.77 1008 10 16.0934 0 0
3:15 pm 15:15 Sunny 90 32.1 65 18.5 44 44 S 10 17 29.77 1008 10 16.0934 0 0
3:35 pm 15:35 Sunny 90 32.2 64 18 43 43 S 15 24 29.77 1008 10 16.0934 0 0
3:55 pm 15:55 Sunny 90 32.2 65 18.4 44 44 S 9 15 29.77 1008 10 16.0934 0 0
4:15 pm 16:15 Sunny 89 31.8 65 18.5 45 45 SE 9 15 29.77 1008 10 16.0934 0 0
4:35 pm 16:35 Sunny 90 32 65 18.4 44 44 SSE 9 15 29.77 1008 10 16.0934 0 0
4:55 pm 16:55 Sunny 88 31 65 18.3 47 47 SSE 9 15 29.77 1008 10 16.0934 0 0
5:15 pm 17:15 Sunny 89 31.6 65 18.4 45 45 SE 9 15 29.74 1007 10 16.0934 0 0
5:35 pm 17:35 Sunny 88 31.3 64 18 45 45 SE 8 13 29.74 1007 10 16.0934 0 0
5:55 pm 17:55 Sunny 87 30.3 64 17.8 47 47 SE 9 15 29.74 1007 10 16.0934 0 0
6:15 pm 18:15 Sunny 85 29.5 67 19.4 55 55 SE 7 11 29.77 1008 10 16.0934 0 0
6:35 pm 18:35 Sunny 85 29.2 68 19.9 57 57 SE 7 11 29.77 1008 10 16.0934 0 0
6:55 pm 18:55 Sunny 84 28.7 67 19.6 58 58 SE 7 11 29.77 1008 10 16.0934 0 0
7:15 pm 19:15 Sunny 83 28.1 68 19.9 61 61 SE 7 11 29.77 1008 10 16.0934 0 0
7:35 pm 19:35 Sunny 82 27.8 69 20.5 65 65 SE 9 15 29.77 1008 10 16.0934 0 0
7:55 pm 19:55 Sunny 81 27.2 70 20.9 69 69 SE 8 13 29.77 1008 10 16.0934 0 0
8:15 pm 20:15 Sunny 81 27 70 20.9 69 69 SE 8 13 29.77 1008 10 16.0934 0 0
8:35 pm 20:35 Clear 80 26.6 69 20.5 69 69 SE 7 11 29.77 1008 10 16.0934 0 0
8:55 pm 20:55 Clear 78 25.4 68 20.2 73 73 SSE 5 7 29.8 1009 10 16.0934 0 0
9:15 pm 21:15 Clear 77 24.8 67 19.5 72 72 SSE 7 11 29.8 1009 10 16.0934 0 0
9:35 pm 21:35 Clear 77 25 65 18.6 68 68 SSE 8 13 29.8 1009 10 16.0934 0 0
9:55 pm 21:55 Clear 76 24.7 65 18.3 68 68 SE 7 11 29.8 1009 10 16.0934 0 0
10:15 pm 22:15 Clear 76 24.7 65 18.1 67 67 Calm 29.8 1009 10 16.0934 0 0
10:35 pm 22:35 Clear 76 24.3 65 18.2 69 69 SE 3 6 29.8 1009 10 16.0934 0 0
10:55 pm 22:55 Clear 76 24.5 65 18.6 70 70 SSE 5 7 29.8 1009 10 16.0934 0 0
11:15 pm 23:15 Clear 75 23.9 66 19 74 74 SE 6 9 29.8 1009 10 16.0934 0 0
11:35 pm 23:35 Clear 75 24 66 19.1 74 74 SE 6 9 29.8 1009 10 16.0934 0 0
11:55 pm 23:55 Clear 75 24 67 19.3 75 75 SE 8 13 29.8 1009 10 16.0934 0 0

Powered by AerisWeather